Total_Precipitation_Accumulation
0.94 1.11 1.11 1.00 0.96 1.00 1.07 1.17 1.30 1.25 1.17 1.04 0.92 0.86 0.87 0.87 0.82 0.71 0.60 0.57 0.53 0.47 0.44 0.41 0.43 0.48 0.53 0.57 0.63 0.72 0.79 0.87 0.99 1.15 1.42 1.72 1.96 2.21
1.16 1.25 1.28 1.24 1.20 1.12 1.16 1.21 1.27 1.35 1.25 0.99 0.93 0.91 0.86 0.73 0.75 0.68 0.58 0.60 0.52 0.47 0.44 0.42 0.40 0.44 0.47 0.48 0.44 0.46 0.50 0.55 0.59 0.64 0.75 0.90 1.08 1.31
1.33 1.43 1.49 1.51 1.49 1.33 1.29 1.27 1.27 1.37 1.27 1.03 0.97 0.95 0.84 0.71 0.68 0.63 0.57 0.56 0.51 0.54 0.48 0.42 0.39 0.38 0.41 0.42 0.41 0.40 0.42 0.42 0.45 0.49 0.54 0.60 0.64 0.72
1.44 1.60 1.64 1.60 1.50 1.39 1.40 1.33 1.31 1.41 1.35 1.20 1.16 1.11 1.02 0.89 0.82 0.76 0.64 0.61 0.61 0.69 0.60 0.48 0.42 0.39 0.37 0.36 0.36 0.35 0.37 0.38 0.39 0.41 0.44 0.48 0.49 0.49
1.49 1.53 1.53 1.60 1.52 1.46 1.39 1.35 1.32 1.43 1.48 1.38 1.41 1.40 1.26 1.12 1.04 0.92 0.80 0.77 0.65 0.64 0.62 0.54 0.50 0.44 0.40 0.37 0.36 0.35 0.34 0.34 0.36 0.38 0.40 0.43 0.43 0.43
1.47 1.50 1.51 1.51 1.55 1.63 1.54 1.47 1.52 1.58 1.63 1.59 1.58 1.67 1.57 1.36 1.22 1.08 0.93 0.85 0.76 0.60 0.60 0.62 0.57 0.49 0.43 0.39 0.37 0.37 0.39 0.38 0.37 0.39 0.39 0.41 0.46 0.51
1.43 1.37 1.42 1.58 1.66 1.69 1.55 1.56 1.65 1.65 1.62 1.65 1.63 1.71 1.71 1.55 1.29 1.05 0.98 0.95 0.88 0.75 0.68 0.59 0.55 0.52 0.48 0.47 0.46 0.44 0.41 0.41 0.40 0.40 0.41 0.44 0.48 0.57
1.42 1.33 1.27 1.32 1.42 1.50 1.46 1.42 1.48 1.53 1.59 1.60 1.63 1.70 1.75 1.67 1.48 1.29 1.16 1.04 0.98 0.92 0.95 0.88 0.75 0.73 0.63 0.55 0.58 0.57 0.53 0.49 0.47 0.44 0.43 0.44 0.48 0.59
1.22 1.18 1.01 0.95 1.16 1.24 1.37 1.39 1.31 1.28 1.32 1.45 1.57 1.60 1.72 1.77 1.70 1.50 1.41 1.30 1.13 1.07 1.10 1.08 0.99 0.86 0.69 0.66 0.74 0.66 0.63 0.60 0.56 0.54 0.51 0.46 0.43 0.46
1.06 1.03 1.03 1.02 1.05 1.12 1.21 1.25 1.23 1.17 1.14 1.17 1.30 1.48 1.63 1.79 1.78 1.68 1.62 1.48 1.28 1.16 1.13 1.12 1.05 0.96 0.82 0.76 0.79 0.72 0.65 0.61 0.59 0.63 0.70 0.67 0.52 0.46
1.12 1.16 1.15 1.05 1.08 1.04 1.05 1.09 1.11 1.15 1.12 1.12 1.16 1.34 1.52 1.64 1.77 1.72 1.64 1.50 1.32 1.18 1.11 1.07 1.01 1.01 0.94 0.81 0.72 0.69 0.59 0.54 0.52 0.53 0.65 0.88 0.95 0.77
1.27 1.22 1.15 1.03 0.97 0.91 0.93 0.99 0.98 0.97 1.05 1.08 1.08 1.17 1.31 1.44 1.60 1.57 1.47 1.46 1.30 1.16 1.02 0.98 0.93 0.95 0.97 0.85 0.73 0.63 0.56 0.52 0.50 0.52 0.67 0.99 1.14 1.00
1.28 1.23 1.18 1.07 0.91 0.84 0.79 0.81 0.85 0.90 0.97 1.02 1.11 1.22 1.36 1.48 1.48 1.46 1.43 1.32 1.22 1.02 0.83 0.88 0.85 0.80 0.79 0.73 0.67 0.62 0.56 0.52 0.51 0.54 0.63 0.87 1.12 1.08
1.43 1.34 1.26 1.12 0.89 0.82 0.73 0.74 0.76 0.75 0.88 0.98 1.05 1.15 1.27 1.40 1.48 1.51 1.48 1.32 1.12 0.99 0.90 0.89 0.84 0.79 0.73 0.65 0.61 0.59 0.61 0.57 0.55 0.55 0.55 0.70 0.83 1.07
1.46 1.53 1.37 1.20 1.01 0.88 0.87 0.84 0.77 0.73 0.87 0.99 0.98 1.00 1.06 1.17 1.41 1.60 1.68 1.59 1.31 1.03 0.92 0.88 0.81 0.78 0.77 0.65 0.54 0.51 0.55 0.59 0.57 0.58 0.59 0.62 0.74 0.93
1.48 1.53 1.39 1.27 1.11 0.97 0.93 0.84 0.74 0.72 0.78 0.87 0.92 0.96 1.04 1.12 1.26 1.44 1.63 1.66 1.50 1.13 0.94 0.89 0.83 0.84 0.80 0.70 0.61 0.52 0.49 0.53 0.57 0.61 0.69 0.73 0.84 0.95
1.54 1.62 1.55 1.43 1.32 1.18 1.08 1.02 0.97 0.90 0.84 0.84 0.95 1.00 1.05 1.05 1.12 1.25 1.47 1.57 1.44 1.11 0.91 0.89 0.94 0.97 0.94 0.91 0.79 0.62 0.55 0.51 0.54 0.64 0.75 0.77 0.81 0.86
1.35 1.51 1.50 1.40 1.33 1.29 1.25 1.18 1.11 1.03 0.97 0.95 0.98 1.02 1.03 1.06 1.11 1.21 1.32 1.41 1.36 1.17 0.98 0.88 0.96 1.05 1.01 0.93 0.79 0.66 0.59 0.57 0.59 0.71 0.77 0.75 0.72 0.75
1.06 1.24 1.25 1.21 1.20 1.22 1.18 1.09 1.02 1.03 1.04 1.01 0.96 1.00 1.05 1.07 1.10 1.18 1.23 1.32 1.36 1.31 1.16 1.02 0.98 0.99 0.89 0.72 0.63 0.61 0.61 0.62 0.67 0.72 0.75 0.73 0.67 0.65
0.88 1.02 1.07 1.09 1.11 1.16 1.15 1.15 1.10 1.11 1.12 1.08 1.05 1.07 1.14 1.17 1.15 1.18 1.25 1.28 1.32 1.33 1.29 1.13 0.98 0.91 0.82 0.71 0.65 0.58 0.54 0.59 0.67 0.69 0.70 0.73 0.70 0.68
0.91 0.98 1.02 1.04 1.07 1.15 1.16 1.16 1.16 1.18 1.17 1.17 1.17 1.18 1.24 1.30 1.20 1.14 1.19 1.24 1.20 1.24 1.19 1.06 0.96 0.99 1.02 1.00 0.81 0.61 0.58 0.56 0.59 0.65 0.71 0.76 0.73 0.73
0.99 0.98 1.04 1.06 1.07 1.08 1.10 1.11 1.13 1.17 1.17 1.17 1.22 1.25 1.25 1.26 1.18 1.15 1.14 1.18 1.14 1.09 1.11 1.15 1.25 1.27 1.17 1.04 0.83 0.70 0.69 0.67 0.65 0.64 0.62 0.63 0.63 0.60
1.00 1.00 1.01 0.99 0.99 1.01 1.04 1.05 1.12 1.16 1.15 1.15 1.20 1.25 1.24 1.21 1.17 1.15 1.13 1.14 1.17 1.19 1.25 1.32 1.39 1.34 1.17 1.05 0.92 0.82 0.80 0.80 0.77 0.72 0.65 0.58 0.51 0.46